Tracking 20621 objects as of 31-Mar-2020
HD Live streaming from Space Station
objects crossing your sky now

SIRIO

Track SIRIO now!
SIRIO is classified as:


NORAD ID: 10294
Int'l Code: 1977-080A
Perigee: 35,755.0 km
Apogee: 35,833.0 km
Inclination: 12.1 °
Period: 1,436.1 minutes
Semi major axis: 42164 km
RCS: 0.14 m2 (medium)
Launch date: August 25, 1977
Source: Italy (IT)
Launch site: AIR FORCE EASTERN TEST RANGE (AFETR)
aabbcc
Your satellite tracking list
Your tracking list is empty




NASA's NSSDC Master Catalog

Two Line Element Set (TLE):
1 10294U 77080A   20090.16021528 -.00000101 +00000-0 +00000-0 0  9997
2 10294 012.0681 320.8229 0009241 081.1352 279.2531 01.00270853095153
Source of the keplerian elements: AFSPC